Home > Weather > Ahvaz > Past weeks

Flag for Iran Weather for the Past 2 Weeks in Ahvaz, Iran

Now
54 °F

Clear.


Feels Like: 54 °F
Forecast: 50 / 56 °F
Wind: 2 mph from East

Location: Ahwaz

Current Time: Feb 10, 2016 at 10:43:25 PM

Latest Report: Feb 10, 2016 at 10:00 PM


Visibility: 10 mi

Pressure: 29.98 "Hg

Humidity: 72%

Dew point: 45 °F

Location of AhvazLocation

Historic Weather in Ahvaz — Graph

°F

Ahvaz Temperature Yesterday

Maximum temperature yesterday: 68 °F (at 3:30 PM)
Minimum temperature yesterday: 50 °F (at 5:30 AM)
Average temperature yesterday: 58 °F

High & Low Weather Summary for the Past Weeks

 TemperatureHumidityPressure
High73 °F (Feb 5, 5:00 PM)93% (Feb 5, 7:00 AM)30.36 "Hg (Feb 5, 7:00 AM)
Low36 °F (Jan 29, 7:00 AM)28% (Feb 9, 3:00 PM)29.86 "Hg (Feb 7, 2:30 PM)
Average56 °F54%30.16 "Hg
* Reported Jan 26 9:30 PM — Feb 10 9:30 PM, Ahvaz, Weather by CustomWeather, © 2016

Note: Actual official high and low records may vary slightly from our data, if they occured in-between our weather recording intervals... More about our weather records

Advertising

Ahvaz Weather History for the Previous 24 Hours

 ConditionsComfort  
Time TempWeatherWind HumidityBarometerVisibility
9:30 PM
Wed, Feb 10
54 °FClear.2 mph67%30.01 "Hg10 mi
9:00 PM55 °FClear.No wind67%30.01 "Hg10 mi
8:30 PM57 °FClear.No wind63%30.01 "Hg10 mi
8:00 PM55 °FClear.No wind59%30.01 "Hg10 mi
7:30 PM59 °FClear.No wind48%30.01 "Hg10 mi
7:00 PM59 °FClear.No wind48%30.01 "Hg10 mi
6:30 PM63 °FClear.2 mph49%30.01 "Hg10 mi
6:00 PM68 °FSunny.2 mph28%30.01 "Hg10 mi
5:30 PM68 °FSunny.No wind28%30.01 "Hg10 mi
5:00 PM68 °FSunny.5 mph30%30.01 "Hg10 mi
4:30 PM70 °FSunny.5 mph29%30.01 "Hg10 mi
3:30 PM70 °FSunny.7 mph29%30.04 "Hg10 mi
3:00 PM70 °FSunny.5 mph31%30.04 "Hg10 mi
2:30 PM68 °FSunny.2 mph33%30.04 "Hg10 mi
2:00 PM68 °FSunny.5 mph35%30.07 "Hg10 mi
1:30 PM68 °FSunny.5 mph35%30.07 "Hg10 mi
1:00 PM66 °FSunny.5 mph40%30.09 "Hg10 mi
12:30 PM64 °FSunny.5 mph43%30.09 "Hg10 mi
12:00 PM64 °FSunny.5 mph46%30.12 "Hg10 mi
11:30 AM63 °FSunny.2 mph45%30.12 "Hg10 mi
11:00 AM61 °FSunny.No wind48%30.12 "Hg10 mi
10:30 AM57 °FSunny.No wind55%30.12 "Hg10 mi
10:00 AM55 °FSunny.5 mph55%30.12 "Hg10 mi
9:30 AM54 °FSunny.5 mph54%30.12 "Hg10 mi
9:00 AM52 °FSunny.5 mph67%30.12 "Hg10 mi
8:30 AM50 °FSunny.5 mph71%30.12 "Hg10 mi
7:30 AM46 °FClear.5 mph82%30.09 "Hg5 mi
7:00 AM46 °FClear.5 mph82%30.09 "Hg5 mi
6:30 AM46 °FClear.5 mph82%30.09 "Hg10 mi
5:30 AM46 °FClear.7 mph82%30.09 "Hg10 mi
4:30 AM48 °FClear.5 mph82%30.09 "Hg10 mi
3:30 AM50 °FClear.5 mph67%30.09 "Hg10 mi
2:30 AM50 °FClear.5 mph67%30.12 "Hg10 mi
1:30 AM52 °FClear.5 mph62%30.12 "Hg10 mi
12:30 AM54 °FClear.7 mph58%30.12 "Hg10 mi
12:00 AM54 °FClear.7 mph54%30.12 "Hg10 mi
11:30 PM
Tue, Feb 9
55 °FClear.5 mph51%30.12 "Hg10 mi
11:00 PM55 °FClear.7 mph51%30.12 "Hg10 mi
10:30 PM57 °FClear.9 mph51%30.12 "Hg10 mi
10:00 PM57 °FClear.5 mph51%30.15 "Hg10 mi
Weather by CustomWeather, © 2016

See weather overviewHow to use our weather pages